• Join FlightAware (Why Join?)
  • Login
  • US Flag GB Flag 
00:17 EDT


 

Airport Tracker/Info


-or-


 

Live Flight TrackerFlight Track Log ✈ SWA1718 ✈ 15-Apr-2013 ✈ KAMA - KDEN

Flight Track Log - Related Links

Times and Time Zones

All times are in EDT time to prevent confusion due to time zone crossing. See the SWA1718 flight status page for this flight to view local times or setup timezone preferences in your user account.

Time Position Orientation Groundspeed Altitude Reporting Facility
EDT Latitude Longitude Course Direction KTS MPH feet Rate Location/Type
17:23 35.3733 -101.8381 341° North 293 337 11,400  Level Albuquerque Center
17:24 35.4667 -101.8783 341° North 342 394 15,100 3,480 Climbing Albuquerque Center
17:25 35.5631 -101.9200 341° North 362 417 18,600 3,360 Climbing Albuquerque Center
17:26 35.6864 -101.9717 341° North 382 440 22,100 3,000 Climbing Albuquerque Center
17:27 35.8066 -101.9660 342° North  Level FlightAware Approximate
17:28 35.9025 -102.0177 342° North  Level FlightAware Approximate
17:28 35.7936 -102.0189 340° North 401 461 24,900  Level Albuquerque Center
17:29 35.9031 -102.0664 341° North 413 475 27,200 2,040 Climbing Albuquerque Center
17:30 36.0167 -102.1147 341° North 426 490 29,200 2,040 Climbing Albuquerque Center
17:31 36.1331 -102.1644 341° North 438 504 31,500 1,320 Climbing Albuquerque Center
17:32 36.2478 -102.2150 340° North 439 505 32,000 240 Climbing Albuquerque Center
17:33 36.3858 -102.2756 341° North 438 504 32,000  Level Albuquerque Center
17:34 36.5003 -102.3253 341° North 437 503 32,000  Level Albuquerque Center
17:35 36.6144 -102.3758 340° North 436 502 32,000  Level Albuquerque Center
17:36 36.7289 -102.4261 341° North 436 502 32,000  Level Albuquerque Center
17:37 36.8433 -102.4775 340° North 437 503 32,000 240 Level Albuquerque Center
17:38 36.9692 -102.5331 341° North 445 512 32,500 1,140 Climbing Albuquerque Center
17:39 37.0797 -102.5828 340° North 443 510 34,400 1,680 Climbing Albuquerque Center
17:40 37.2089 -102.6397 341° North 440 506 36,000 720 Climbing Albuquerque Center
17:41 37.3169 -102.6900 340° North 436 502 36,000  Level Albuquerque Center
17:42 37.4431 -102.7458 341° North 431 496 36,000  Level Albuquerque Center
17:43 37.5494 -102.7911 341° North 424 488 36,000  Level Albuquerque Center
17:44 37.6786 -102.8319 346° North 426 490 36,000  Level Albuquerque Center
17:45 37.7897 -102.8661 346° North 428 493 36,000  Level Albuquerque Center
17:46 37.9181 -102.9072 346° North 428 493 36,000  Level Albuquerque Center
17:47 38.0508 -102.9469 347° North 433 498 36,000  Level Denver Center
17:48 38.1822 -102.9886 346° North 434 499 36,000  Level Denver Center
17:49 38.2947 -103.0253 346° North 435 501 36,000 -480 Level Denver Center
17:50 38.4294 -103.0692 346° North 448 516 35,100 -900 Descending Denver Center
17:51 38.5442 -103.1197 341° North 459 528 34,200 -540 Descending Denver Center
17:52 38.6244 -103.2217 315° West 410 472 34,000 -120 Descending Denver Center
17:53 38.6994 -103.3267 312° West 397 457 34,000 -360 Level Denver Center
17:55 38.7819 -103.4456 312° West 388 447 33,300 -1,740 Descending Denver Center
17:56 38.8547 -103.5464 313° West 377 434 30,500 -2,580 Descending Denver Center
17:57 38.9247 -103.6450 312° West 371 427 28,100 -2,220 Descending Denver Center
17:58 38.9886 -103.7367 312° West 346 398 26,000 -2,040 Descending Denver Center
17:59 39.0506 -103.8247 312° West 328 377 24,000 -1,920 Descending Denver Center
18:00 39.1114 -103.9111 312° West 324 373 22,100 -1,980 Descending Denver Center
18:01 39.1725 -104.0000 312° West 326 375 20,000 -1,800 Descending Denver Center
18:02 39.2361 -104.0903 312° West 335 386 18,500 -1,500 Descending Denver Center
18:03 39.2767 -104.2022 295° West 317 365 16,900 -1,740 Descending Denver Center
18:04 39.3028 -104.3081 288° West 294 338 15,000 -1,500 Descending Denver Center
18:05 39.3339 -104.4053 293° West 299 344 13,900 -1,140 Descending Denver Center
18:06 39.3828 -104.4997 304° West 315 362 12,700 -780 Descending Denver Center
18:07 39.4283 -104.5919 303° West 276 318 12,300 -720 Descending Denver Center
18:08 39.4853 -104.6494 322° Northwest 270 311 11,300 -660 Descending Denver Center
18:09 39.5483 -104.6639 350° North 232 267 11,000 -840 Descending Denver Center
18:10 39.6161 -104.6633 360° North 225 259 9,700 -1,200 Descending Denver Center
18:11 39.6728 -104.6622 North 199 229 8,600 -1,140 Descending Denver Center
18:12 39.7297 -104.6619 360° North 187 215 7,400 -1,020 Descending Denver Center
18:13 39.7742 -104.6617 360° North 162 186 6,600 -780 Descending Denver Center
18:14 39.8094 -104.6606 North 132 152 5,800 -600 Descending Denver Center
18:15 39.8428 -104.6608 360° North 119 137 5,400 -420 Descending Denver Center
18:17 39.8500 -104.6667 North  Level FlightAware Approximate
18:24 39.8617 -104.6732 North  Level Estimated
18:25 39.8617 -104.6732 North  Level Estimated